Location: Asheville, NC
(35.6000°N, 82.5500°W)
Time: 00:13:40
(UTC-04:00)

Vanguard 2 - Pass Details

Date: 16 February 2018
Orbit: 552 x 2940 km, 32.9° (Epoch: 21 May)

Event Time Altitude Azimuth Distance (km) Brightness Sun altitude
Rises 00:59:07 0° 267° (W) 2,767 - -66.5°
Reaches altitude 10° 01:02:03 10° 245° (WSW) 1,813 - -66.4°
Maximum altitude 01:04:33 16° 205° (SSW) 1,479 - -66.3°
Drops below altitude 10° 01:07:12 10° 165° (SSE) 1,926 - -66.2°
Sets 01:10:28 0° 143° (SE) 3,036 - -66.0°
